RH
9 10 10 10 10 10 10 9 9 9 8 7 7 6 5 5 4 4 4 4 4 3 3 3 3 3 3 3 3 3 3 3 3 3 3 3 3 3 3 3 3 3 3 3 3 3 4 4 4 5 5 5 5 5 5 5 5 5 5 5 5 5 6 6 6 8 10 11 12 13 14 15 18 21 24 26 27 26 26 29 33 37 40 41 42
10 10 10 10 10 9 9 8 8 8 7 6 6 5 4 4 4 4 4 3 3 3 3 3 3 3 3 3 3 3 3 3 3 3 3 3 3 3 3 3 3 3 3 3 3 3 3 4 4 4 4 4 5 5 5 5 5 6 5 5 6 5 5 5 5 6 8 10 11 11 11 12 13 14 16 19 20 20 20 20 23 28 33 38 41
9 9 9 9 9 8 8 8 7 6 6 5 5 4 4 4 4 4 3 3 3 3 3 3 3 3 3 3 3 3 3 3 3 3 3 3 3 3 3 3 3 3 3 3 3 3 3 3 3 4 4 4 4 4 4 5 5 5 5 5 5 6 5 5 5 5 6 8 9 9 9 10 11 11 12 14 15 15 15 15 15 18 22 27 33
9 9 9 8 8 8 7 7 6 5 5 4 4 4 4 4 3 4 3 3 4 3 3 3 3 3 3 3 3 3 3 3 3 3 3 3 3 3 3 3 3 3 3 3 3 3 3 3 3 3 3 3 4 4 4 4 4 4 5 5 5 5 5 5 5 5 5 6 7 8 8 8 9 10 10 11 13 13 14 13 12 12 13 16 21
8 8 8 8 8 7 7 6 5 5 4 4 4 4 4 4 4 4 4 4 4 4 3 4 3 3 3 3 3 3 3 3 3 3 3 3 3 3 3 3 3 3 3 3 3 3 3 3 3 3 3 3 3 4 3 3 4 4 4 4 4 4 5 5 5 5 5 6 6 7 7 7 8 9 9 9 10 11 12 12 12 11 11 11 13
9 8 8 8 8 7 6 5 5 4 4 4 4 4 4 4 4 4 4 4 4 4 3 3 3 3 3 3 3 3 3 3 3 3 3 3 3 4 4 3 4 4 3 4 3 4 4 3 4 3 3 3 3 3 3 3 3 4 4 4 4 4 4 4 4 5 5 6 6 6 7 7 7 8 8 8 8 9 9 10 11 11 10 10 10
9 9 9 8 8 7 6 5 5 4 4 4 4 4 4 4 4 4 4 4 3 4 3 3 3 3 3 3 3 3 3 3 3 3 3 3 3 4 4 4 4 4 4 4 4 4 4 4 4 4 3 4 3 3 3 3 3 3 3 3 4 3 4 4 3 4 4 5 6 6 6 7 7 7 7 7 7 8 8 8 8 9 9 9 9
10 9 9 8 8 7 6 5 5 4 4 4 4 4 4 4 4 3 3 4 3 3 3 3 3 3 3 3 3 3 3 3 3 3 3 3 3 3 4 4 4 4 4 4 4 4 4 4 4 4 3 3 4 3 3 3 3 3 3 3 3 3 3 4 3 3 4 4 4 5 6 6 7 7 7 7 7 7 7 7 7 7 8 8 8
10 9 9 9 7 7 6 5 5 5 4 4 4 4 4 3 4 4 3 4 3 3 3 3 3 3 3 3 3 3 3 3 3 3 3 3 3 3 3 3 3 4 4 4 4 4 4 4 4 4 4 3 3 3 3 3 3 3 3 3 3 3 3 3 3 3 3 3 4 4 5 5 6 6 7 7 7 7 7 7 7 7 7 7 7
11 10 9 9 7 7 6 6 6 5 4 5 4 4 4 4 4 4 4 4 4 4 4 4 4 4 4 4 4 3 4 3 3 3 3 3 3 3 3 4 3 4 4 3 4 4 4 4 4 4 4 4 4 3 3 3 3 3 3 3 3 3 2 3 3 3 3 3 3 4 4 4 5 5 6 7 7 7 7 7 7 6 7 6 6
11 11 10 9 8 7 7 6 6 6 5 5 4 4 4 4 4 4 4 4 4 4 4 4 4 4 4 4 4 3 3 4 4 4 4 4 4 4 4 4 4 3 4 3 3 4 3 3 3 3 4 3 4 4 3 3 3 3 3 3 3 3 2 2 3 2 3 3 3 4 4 4 4 4 5 6 6 7 7 7 7 7 7 7 6
12 12 10 9 8 7 7 7 6 6 5 4 5 4 4 4 4 4 4 4 4 4 3 4 3 4 4 3 4 4 3 4 4 4 4 4 4 4 4 4 4 4 4 4 3 4 3 3 3 3 3 3 3 3 3 3 3 3 3 3 3 3 3 2 3 2 3 3 3 3 4 4 4 4 4 5 5 6 6 6 7 7 7 7 7
12 12 11 9 8 7 7 7 6 5 5 5 5 5 4 4 4 4 4 4 4 3 3 4 3 3 4 3 3 3 3 3 3 3 4 4 4 4 4 4 5 4 4 4 4 4 3 3 3 3 3 3 3 3 3 3 3 3 3 3 3 3 3 3 3 3 3 3 3 3 3 4 4 4 4 4 5 5 5 6 6 6 7 7 7
12 12 10 8 8 7 7 7 6 5 5 5 5 5 4 4 4 4 4 4 4 4 3 4 3 3 4 3 3 4 3 3 4 3 4 4 4 4 4 4 4 4 4 4 4 4 4 3 4 3 3 3 3 3 3 3 3 3 3 3 3 3 3 3 3 3 3 3 3 3 3 3 3 4 4 4 4 4 4 5 5 5 6 6 6
12 11 10 8 7 7 7 7 6 6 5 5 5 5 4 5 4 4 4 4 4 4 4 4 4 3 4 4 3 4 3 3 4 4 4 4 4 4 4 4 4 4 4 4 4 4 4 4 4 3 3 3 3 3 3 3 3 3 2 3 3 3 3 3 3 3 3 3 3 3 3 3 3 4 4 4 4 4 4 4 4 4 4 5 5
12 11 9 8 8 7 7 7 6 6 6 5 5 5 4 5 4 4 5 4 4 4 4 4 4 4 4 4 4 4 4 4 4 4 4 4 4 4 4 4 4 4 4 4 4 4 4 3 4 3 3 3 3 3 3 2 3 3 3 3 3 3 3 3 3 3 3 3 3 3 3 4 3 4 4 4 3 4 4 4 4 4 4 4 4
12 11 10 8 8 7 7 7 6 6 6 5 5 5 5 5 5 5 5 4 4 4 4 4 4 4 4 4 4 4 4 4 4 4 4 4 4 5 5 4 4 4 4 4 4 4 4 3 4 4 4 4 3 3 3 2 3 3 3 3 3 3 3 3 3 3 3 3 3 4 4 4 4 4 4 4 3 3 4 4 4 4 4 4 4
12 11 10 8 8 7 7 6 6 6 6 5 5 5 5 5 5 5 5 5 5 4 5 4 4 4 4 4 4 4 4 4 4 4 4 4 4 5 5 4 4 4 4 4 4 4 4 3 4 4 4 4 3 3 3 2 2 3 3 3 3 3 3 3 3 3 3 3 3 3 3 4 4 4 4 4 4 4 4 4 4 4 4 4 5
12 11 10 8 8 7 7 6 6 6 5 5 5 5 5 5 5 5 5 5 5 5 5 5 5 4 4 4 4 4 4 4 4 4 4 4 5 5 5 5 5 4 4 4 4 4 3 3 3 4 4 4 3 3 3 3 3 3 3 3 3 3 3 3 3 3 3 3 3 3 3 3 4 4 4 4 4 3 3 3 4 4 4 4 5
13 11 9 8 8 7 7 6 6 6 6 5 5 5 5 5 5 5 5 5 5 5 5 5 5 5 4 4 4 4 4 4 4 4 4 4 4 5 5 4 4 5 5 4 4 4 3 3 3 3 4 4 3 3 3 3 3 3 3 3 3 3 3 3 3 3 3 3 3 3 3 3 3 4 3 3 3 3 3 3 3 3 3 4 4
12 10 9 8 8 8 7 6 6 6 6 6 6 5 5 6 6 6 6 6 6 6 6 6 6 5 5 5 5 4 4 5 5 4 4 4 4 4 4 5 4 5 5 4 4 4 3 3 3 3 4 4 3 4 3 3 3 3 3 4 3 3 3 3 3 3 3 3 3 3 3 3 3 3 3 3 3 3 3 3 3 3 3 3 3
12 10 9 8 8 8 7 7 7 6 6 6 6 6 6 6 6 6 6 7 6 6 6 6 6 6 5 5 5 5 5 5 5 5 5 4 4 4 4 4 4 5 5 4 4 3 3 3 3 3 3 4 4 4 4 3 3 3 3 3 3 3 3 3 3 3 3 3 3 3 3 3 3 3 3 3 3 3 3 3 3 3 3 3 3
12 10 9 8 8 8 7 7 7 6 7 6 6 6 6 6 7 7 7 7 7 7 7 7 7 7 6 5 5 5 5 5 5 5 5 4 4 4 4 4 4 5 5 4 4 3 3 3 3 3 3 3 3 4 4 3 3 3 3 3 3 3 3 3 3 3 3 3 3 3 3 3 3 3 3 3 3 3 3 3 3 3 3 3 3
12 11 9 8 9 8 7 7 7 7 7 7 6 7 7 7 7 7 8 8 8 8 8 8 8 7 7 6 6 5 5 5 5 5 5 5 5 4 4 4 5 5 5 4 4 4 3 3 3 3 3 3 3 4 4 4 4 3 3 3 3 3 3 3 3 3 3 3 3 3 3 3 3 3 3 3 3 3 3 3 3 3 3 3 3
13 11 9 9 9 8 7 7 7 7 7 7 7 7 7 8 8 8 8 8 8 8 9 8 8 8 7 7 6 5 5 5 5 6 6 5 5 4 4 4 5 5 5 4 4 4 4 3 3 3 3 3 3 3 4 4 4 4 4 3 3 3 3 3 3 3 3 3 3 3 3 3 3 3 3 3 3 3 3 3 3 2 2 3 3
13 11 10 9 9 8 7 7 7 7 7 7 7 7 8 8 8 8 8 9 9 9 9 9 9 9 8 7 7 6 5 5 5 5 5 5 5 4 4 4 4 5 5 4 4 4 4 3 4 4 3 3 3 3 4 4 4 4 4 4 3 3 3 3 3 3 3 3 3 3 3 3 3 3 3 3 3 3 3 3 3 3 2 2 3
13 11 10 9 9 8 8 8 7 7 7 7 7 7 8 9 9 8 9 9 9 9 9 9 9 9 9 8 7 7 6 5 5 5 5 5 5 4 4 4 4 5 4 4 4 4 3 3 3 4 4 4 4 4 4 4 4 4 4 4 4 3 4 4 3 3 3 3 3 3 3 3 3 3 3 3 3 3 3 3 2 3 3 2 2
13 11 10 10 9 8 8 8 8 7 7 7 7 7 9 9 9 8 9 9 10 10 9 9 10 10 9 9 8 8 7 6 5 5 5 5 4 4 4 4 4 5 4 4 4 4 4 4 4 3 4 4 4 4 4 4 4 4 4 4 4 4 4 4 3 3 3 3 3 3 3 3 3 3 3 3 3 3 3 3 3 3 3 3 2
13 11 10 10 9 9 8 8 8 8 8 7 7 8 9 10 10 9 9 9 9 10 10 10 10 10 10 9 9 8 7 6 5 5 4 4 4 4 4 4 4 4 4 4 4 4 4 4 4 4 4 4 4 4 4 4 4 4 4 4 4 4 4 3 4 3 3 3 3 3 3 3 3 3 3 3 3 3 3 3 3 3 2 3 3
13 11 11 10 9 9 8 8 8 8 8 8 8 8 8 9 10 10 9 9 9 9 10 10 10 10 10 10 10 9 9 8 7 6 5 5 4 4 4 4 4 4 4 4 4 4 4 4 4 5 4 4 4 4 4 4 4 4 4 4 4 4 4 3 4 4 3 3 3 3 3 3 3 3 3 3 3 3 3 3 3 3 3 3 3
13 12 11 10 9 9 9 8 8 8 8 8 8 9 9 9 9 9 9 9 9 9 9 9 10 10 10 11 11 10 10 10 9 8 7 5 5 4 4 4 4 5 4 4 4 4 4 4 4 4 4 4 4 4 4 4 4 4 4 4 4 4 4 3 4 4 3 3 3 3 3 3 3 3 3 3 3 3 3 3 3 3 3 3 3
13 12 11 10 9 9 9 9 8 8 8 8 9 10 11 10 9 8 8 9 9 9 9 9 9 9 10 10 10 10 11 11 10 9 8 6 5 5 4 4 4 4 4 4 4 4 4 4 4 4 4 4 4 4 4 4 4 4 4 4 4 4 4 4 4 4 4 3 3 3 3 3 3 3 3 3 3 3 3 3 3 3 3 3 3
12 12 12 11 9 9 9 9 9 9 9 9 9 10 12 13 12 10 8 8 8 8 9 9 9 9 9 9 9 10 10 11 11 10 9 7 6 5 4 4 4 4 4 4 5 4 4 4 4 4 4 4 4 4 4 4 4 4 4 4 4 4 4 4 4 3 4 4 3 3 4 3 3 3 3 3 3 3 3 3 3 4 4 4 4
11 11 11 11 10 9 9 9 9 9 9 9 10 10 12 13 13 12 10 9 8 8 8 8 9 9 9 9 9 9 9 10 11 11 10 9 7 5 5 4 4 4 5 4 5 5 4 4 4 4 4 4 4 4 5 4 4 4 4 4 4 4 4 4 4 4 4 4 4 3 4 4 3 3 4 3 3 3 3 4 4 4 4 4 4
11 11 11 10 10 9 9 9 9 9 10 10 10 11 13 14 14 13 12 11 10 9 8 8 8 8 9 9 9 9 9 9 10 10 10 9 8 6 5 5 5 5 5 5 5 5 4 4 4 4 5 5 4 4 4 5 4 4 4 4 4 4 4 4 4 4 4 4 4 4 3 4 4 4 4 4 4 3 4 4 4 4 4 4 4
11 11 11 10 10 9 9 9 9 10 10 10 11 11 13 14 15 14 13 12 12 11 10 9 9 9 8 9 9 9 9 9 9 10 9 9 8 6 5 5 5 4 5 5 5 6 5 4 4 4 5 5 5 4 4 5 5 4 4 4 4 4 4 4 4 4 4 4 4 4 4 4 4 4 4 4 4 3 4 4 4 4 4 4 4
11 11 11 10 9 9 9 9 9 10 11 11 11 12 13 14 15 14 13 13 12 12 11 10 10 10 9 9 9 9 9 9 9 9 9 9 8 7 5 5 5 4 4 5 5 6 6 5 5 4 5 5 5 5 4 5 5 5 4 5 4 4 4 4 4 4 4 4 4 4 4 4 4 4 4 4 4 4 4 4 4 4 4 4 4
11 11 11 10 9 9 9 9 9 10 11 11 11 12 13 14 15 14 14 13 13 12 11 10 10 10 10 9 9 9 8 8 8 8 9 9 8 7 6 5 5 5 4 5 5 5 6 6 5 5 4 5 5 5 5 5 5 5 5 5 5 5 4 4 4 4 4 4 4 4 4 4 4 4 4 4 4 4 4 4 4 4 4 4 4
11 10 10 10 9 9 9 9 10 11 11 11 11 12 14 15 15 14 14 13 13 13 11 10 10 10 10 10 10 9 9 8 8 8 8 8 8 7 6 6 6 6 5 5 5 5 5 5 5 5 5 5 5 5 5 5 5 5 5 5 5 5 5 5 5 4 4 4 4 4 4 4 4 4 4 4 4 4 4 4 4 4 4 4 4
11 10 10 9 9 9 9 9 10 11 11 11 11 12 14 15 15 14 14 14 13 13 11 10 10 10 9 10 10 9 9 9 8 8 8 8 7 7 6 6 6 6 6 5 5 5 5 5 5 5 5 5 5 5 5 5 5 5 5 5 5 5 5 5 5 5 4 4 4 4 4 4 4 4 4 4 4 4 4 4 4 4 4 4 4
11 10 9 9 9 9 9 9 10 11 11 11 12 13 14 15 14 14 14 14 14 13 11 10 10 9 9 9 9 9 9 9 8 8 8 8 7 6 6 6 5 6 6 6 5 5 5 5 5 5 5 5 5 5 5 5 5 5 5 5 5 5 5 5 5 5 5 4 4 4 4 4 4 4 4 4 4 4 4 4 4 4 4 4 4
10 10 9 9 9 9 9 10 11 11 11 11 12 14 15 14 14 14 14 14 14 13 11 11 10 9 9 9 9 9 9 9 8 8 8 7 7 6 5 6 5 5 6 6 5 5 5 5 5 5 5 5 5 5 5 5 5 5 5 5 5 5 5 5 5 5 5 5 5 5 4 4 4 4 4 4 4 4 4 4 4 4 4 4 4
10 9 9 9 9 9 9 11 11 11 10 11 12 14 14 13 13 13 14 14 14 13 11 11 10 9 9 9 8 8 9 8 8 8 7 7 7 6 5 6 6 5 6 6 5 5 5 5 5 5 5 5 5 5 5 5 5 5 5 5 5 5 5 5 5 5 5 5 5 5 5 5 5 4 4 4 4 4 4 4 4 4 4 5 4
9 9 9 9 9 9 10 11 11 10 10 11 12 13 13 12 12 13 14 14 14 13 11 11 10 9 9 9 8 8 8 7 7 7 7 6 6 6 5 6 6 6 6 6 6 5 5 5 5 5 5 5 5 5 5 5 5 5 5 5 5 5 5 5 5 5 5 5 5 5 5 5 5 5 5 4 4 5 4 4 5 4 4 5 5
9 9 9 9 9 10 11 12 11 10 10 11 12 12 12 12 12 13 13 14 14 13 12 10 10 9 8 8 8 8 7 7 7 7 7 6 5 5 5 5 5 6 6 6 6 6 5 5 5 5 5 5 5 5 5 5 5 5 5 5 5 5 5 5 5 5 5 5 5 5 5 5 4 5 5 4 4 5 5 5 5 5 5 5 5
9 9 9 9 9 11 12 11 10 10 11 12 12 11 11 11 12 13 14 14 14 13 11 10 9 8 8 8 8 7 7 7 7 6 6 6 5 5 5 5 5 5 6 6 6 5 5 5 5 5 5 5 5 5 5 5 5 5 5 5 5 5 5 5 5 5 5 5 5 5 5 5 4 4 5 5 5 5 5 5 5 5 5 6 6
8 9 9 9 10 12 12 10 10 10 11 12 12 11 11 12 13 14 14 15 14 13 11 9 8 8 7 7 7 7 7 7 6 6 6 6 5 5 5 5 5 5 5 6 6 5 5 5 5 5 5 5 5 5 5 5 5 5 5 5 5 5 5 5 5 5 5 5 5 5 5 5 5 5 5 5 5 5 6 6 6 6 6 6 6
8 9 9 10 12 12 11 10 10 11 12 11 11 11 11 12 14 14 15 15 14 12 10 9 8 8 7 7 7 7 7 6 6 6 6 5 5 5 5 5 5 5 5 5 5 5 5 5 5 5 5 5 5 5 5 5 5 5 5 5 5 5 5 5 5 5 5 5 5 5 5 5 5 5 5 5 6 6 6 6 6 6 6 6 6
9 9 10 11 13 12 11 10 11 12 12 12 11 11 12 13 14 15 15 14 13 11 9 9 8 7 7 7 7 7 7 7 6 6 6 5 5 5 5 5 5 5 5 5 5 5 5 5 5 5 5 5 5 5 5 5 5 5 5 5 5 5 5 5 5 5 5 5 5 5 5 5 5 5 6 6 6 6 6 6 6 6 6 6 6
9 10 11 13 13 12 11 11 12 13 13 12 12 12 13 14 15 15 15 14 13 11 9 8 8 7 7 7 7 7 7 7 6 6 6 5 5 5 5 5 5 5 5 5 5 5 5 5 5 5 5 5 5 5 5 5 5 5 5 5 5 5 5 5 5 5 5 5 5 5 5 5 6 6 6 7 7 7 6 6 6 6 6 6 5
9 11 12 13 13 11 11 12 13 13 13 12 12 13 14 15 16 16 15 14 13 11 9 8 8 7 7 7 7 7 7 7 6 6 6 5 5 5 5 5 5 5 5 5 5 5 5 5 5 5 5 5 5 5 5 5 5 5 5 5 5 5 5 5 5 5 5 5 5 5 5 6 6 7 7 7 7 7 6 6 6 6 6 6 5
Wind_Speed
76 76 77 78 79 81 82 84 86 89 92 95 97 99 100 100 99 99 98 98 97 97 97 97 97 97 97 97 98 99 99 100 101 102 103 105 106 107 108 109 110 110 111 112 113 114 116 119 121 124 126 127 128 129 131 133 135 136 138 139 140 140 140 140 138 138 142 146 148 149 151 152 152 153 154 153 152 150 148 146 145 144 143 142 140
76 76 76 77 78 79 81 82 84 87 90 92 94 95 95 95 94 94 94 94 93 93 94 94 94 95 95 95 95 95 96 96 97 98 99 100 101 103 104 105 106 107 109 109 110 110 111 113 116 119 121 123 125 127 128 130 131 132 134 135 136 138 138 138 137 137 139 143 145 146 147 149 150 151 152 153 153 151 150 148 146 145 145 144 143
77 76 76 77 78 79 80 81 83 85 87 89 90 90 90 90 90 90 90 90 90 90 90 91 91 91 91 92 92 92 92 93 93 94 95 96 97 98 100 101 102 103 105 106 107 108 108 109 111 113 115 118 120 123 126 127 129 129 131 131 132 134 135 136 135 135 137 140 143 144 145 146 148 149 150 151 152 151 151 149 147 146 145 145 144
76 76 76 76 77 78 79 80 81 83 84 85 85 85 85 85 85 85 85 86 87 87 88 88 88 88 88 88 88 89 89 89 90 91 91 92 93 95 96 97 98 99 101 102 104 105 106 107 109 110 111 112 114 117 120 123 126 127 128 129 129 130 131 132 132 132 133 136 139 141 142 144 145 147 148 149 150 150 150 150 148 147 145 145 144
77 76 76 77 78 78 79 79 80 81 82 82 81 81 81 81 81 81 81 82 83 84 84 85 85 85 85 85 85 86 86 87 87 88 88 89 90 91 92 93 95 96 97 99 100 102 103 105 106 108 109 110 111 113 115 117 120 122 124 126 127 127 128 129 129 129 129 131 134 137 139 141 143 145 146 147 148 149 149 149 149 147 145 144 144
79 78 77 78 78 79 79 79 80 80 79 79 78 78 77 77 77 77 78 79 79 80 81 81 82 82 82 82 83 83 83 84 84 84 85 86 87 88 89 90 91 93 94 96 97 98 100 102 104 106 106 107 108 110 111 112 113 115 117 120 122 124 125 125 126 126 126 126 128 131 135 137 140 142 144 146 147 147 148 147 148 147 146 144 143
80 79 79 79 79 80 79 79 79 79 78 77 76 75 75 75 75 75 75 76 76 77 77 78 79 79 79 80 80 81 81 81 81 81 82 83 83 84 85 87 88 90 91 93 94 96 97 99 101 103 104 105 106 107 108 108 108 109 111 113 116 118 120 122 123 123 123 123 124 127 129 132 135 138 141 144 145 146 147 147 146 146 145 144 142
82 81 80 80 80 80 80 80 79 78 77 76 75 74 74 73 73 73 74 74 74 74 75 75 76 76 76 77 78 78 79 79 79 79 79 80 80 81 82 84 85 87 88 90 92 93 95 97 98 100 101 102 103 104 105 105 105 105 106 108 110 111 113 116 118 119 120 120 121 123 125 128 130 133 136 140 142 144 145 146 145 144 144 143 142
84 82 82 81 81 80 80 79 79 78 76 75 74 73 73 72 72 72 72 73 72 72 73 73 73 73 74 74 75 76 76 77 76 76 77 77 77 78 79 81 82 84 85 87 89 91 92 94 95 97 98 99 100 101 102 103 103 103 104 105 105 106 107 109 111 113 115 116 118 120 122 124 126 129 132 135 138 140 142 143 143 143 143 142 141
85 83 83 82 81 80 80 79 78 77 75 74 73 72 72 71 71 71 71 71 71 71 71 71 71 71 72 72 73 73 74 74 73 73 74 74 74 75 77 78 80 81 83 85 86 88 90 91 93 94 95 96 97 98 99 100 101 101 102 103 102 102 102 103 105 107 109 111 113 116 119 120 123 126 128 131 134 136 138 139 140 140 141 141 139
85 84 83 82 81 80 79 78 77 75 74 73 72 72 71 70 70 70 70 70 70 69 69 69 69 69 69 70 71 71 71 71 70 71 71 71 71 73 74 76 78 79 81 82 84 86 87 89 90 91 92 93 94 95 96 97 98 98 99 100 100 99 99 99 100 102 103 105 107 110 113 115 119 123 125 128 130 132 134 135 136 137 138 139 138
86 85 84 83 81 80 78 77 75 74 73 72 71 71 70 70 69 69 69 69 68 68 67 66 67 67 67 68 69 70 69 68 68 68 68 68 69 70 71 74 76 78 79 80 82 83 85 86 88 88 89 90 91 92 93 94 95 95 96 97 98 97 97 97 97 98 99 99 100 103 106 109 113 118 121 124 127 130 131 132 133 134 135 136 137
86 85 85 83 81 79 77 76 74 73 72 71 70 70 69 68 68 67 67 67 67 66 65 65 65 65 65 66 67 67 67 66 65 66 66 66 66 67 69 72 74 76 78 79 80 81 82 83 84 86 86 87 87 88 90 91 92 92 93 94 94 94 94 94 94 95 95 95 95 97 100 103 107 112 116 121 124 127 128 129 131 133 134 134 135
87 86 85 83 81 79 77 75 74 73 72 71 70 69 68 67 66 66 66 66 66 65 64 64 64 64 63 64 64 65 64 63 63 64 64 64 65 66 67 70 72 74 76 77 78 79 80 81 82 83 84 84 85 86 87 87 88 89 89 89 90 90 91 92 92 92 92 92 92 93 96 99 102 106 111 116 120 122 125 127 129 131 132 132 132
87 86 85 83 81 79 77 76 75 73 73 72 70 69 67 66 65 65 65 65 65 64 64 63 64 63 63 62 62 63 63 61 62 62 62 62 63 64 66 68 70 72 74 75 76 77 78 79 80 81 82 82 83 83 82 83 83 83 84 84 85 86 87 88 89 90 90 90 90 90 92 96 98 101 106 111 114 116 119 123 126 127 128 128 129
88 87 86 84 82 79 77 76 75 74 73 72 70 68 67 66 65 64 64 64 64 63 63 63 63 63 62 61 61 61 61 60 60 61 61 60 61 63 65 67 69 71 72 73 74 75 77 77 78 79 80 81 82 80 79 78 78 78 80 81 82 82 83 85 87 88 88 88 88 89 91 94 95 98 102 106 108 111 114 117 119 122 123 124 125
89 87 86 84 82 80 77 76 75 74 73 71 69 68 66 65 64 64 63 63 63 62 61 61 62 62 61 60 60 60 60 59 59 60 60 59 59 61 64 66 67 69 70 71 73 74 75 75 75 76 77 79 80 79 77 74 74 75 77 78 79 80 81 83 84 85 86 86 86 87 89 92 94 95 97 100 104 106 108 110 111 114 117 119 120
89 87 86 84 82 79 77 75 74 73 72 71 69 67 66 65 64 63 62 62 62 61 60 60 61 60 59 59 58 58 58 58 57 58 59 57 57 59 62 64 65 66 68 70 71 73 73 72 71 72 74 77 78 78 76 73 72 72 74 74 75 76 78 80 81 82 82 83 83 85 87 89 92 94 95 98 101 103 104 104 105 109 112 113 113
89 87 86 84 81 79 77 75 74 73 72 71 69 67 65 64 63 62 61 61 61 60 59 59 60 59 58 57 57 56 56 56 56 57 57 56 55 58 60 61 62 64 65 68 70 71 70 68 68 69 70 72 74 75 74 72 71 71 71 71 72 74 76 78 78 78 79 80 81 82 84 87 91 93 95 97 99 101 101 101 103 107 109 108 109
88 87 85 83 80 78 77 75 74 73 72 71 69 66 64 63 62 61 61 61 60 60 59 58 59 59 57 56 55 54 54 54 54 55 55 55 54 56 58 59 59 61 63 66 68 69 67 65 64 65 66 67 70 71 71 70 69 68 68 68 71 73 74 74 74 75 77 78 79 81 83 85 88 91 93 95 97 98 99 99 101 103 104 104 106
88 87 85 83 80 78 76 75 74 73 71 70 68 66 64 63 62 61 61 60 60 59 58 58 58 58 57 55 54 53 52 52 53 54 54 55 54 54 55 56 57 58 62 65 66 66 65 63 61 61 61 63 65 66 67 68 66 64 65 67 70 71 70 70 72 74 76 77 78 79 80 83 85 87 89 91 93 95 96 96 97 99 100 100 103
88 87 85 82 80 78 76 75 74 72 71 69 67 65 63 62 61 61 60 60 59 59 58 58 58 58 57 56 54 53 52 51 51 52 54 54 54 52 52 53 54 55 59 63 64 64 62 60 58 57 58 59 61 63 64 65 64 63 64 65 66 67 68 70 72 74 74 74 75 76 78 80 82 83 85 87 90 92 92 92 93 95 96 97 100
89 87 85 82 80 78 76 75 73 72 70 68 66 64 63 62 61 60 60 59 59 58 57 57 58 58 58 56 54 52 51 50 50 50 52 54 53 51 50 50 51 53 57 61 62 62 60 58 55 54 54 55 57 58 61 62 62 62 63 63 64 65 67 69 70 71 71 72 73 74 76 78 79 81 82 84 86 88 89 88 89 90 91 93 95
89 87 84 81 79 78 76 74 73 71 69 67 65 64 63 61 60 59 58 58 57 57 57 57 57 58 58 57 55 53 51 50 49 49 50 52 53 51 49 48 49 51 55 59 60 60 59 57 55 53 52 52 53 54 57 58 60 61 62 62 63 64 65 66 68 69 70 71 71 73 75 76 77 79 80 82 84 85 86 86 87 87 88 89 91
89 87 84 81 79 77 76 74 72 70 68 66 64 63 62 61 59 58 57 56 56 55 56 56 56 57 58 57 56 54 52 50 49 48 49 51 52 52 49 47 46 49 53 56 57 57 57 56 55 53 52 51 51 51 53 55 57 59 61 61 62 62 63 64 66 67 69 70 70 71 73 74 75 77 79 80 81 83 84 85 85 86 86 87 88
89 87 84 81 79 77 76 74 72 70 68 65 63 62 61 60 59 57 56 55 54 54 54 54 55 56 57 56 56 55 54 51 50 49 49 49 50 50 48 45 44 47 50 53 54 55 55 54 53 52 51 50 50 50 51 53 54 57 59 60 61 61 62 63 64 66 67 69 69 70 71 72 73 74 76 78 79 80 80 81 81 82 83 84 86
88 86 84 81 79 77 75 74 72 70 68 65 63 61 60 60 58 57 55 55 54 53 53 54 54 55 56 55 55 55 54 52 50 49 49 49 49 49 47 44 43 45 48 49 51 53 54 52 50 49 49 49 48 48 49 51 53 54 56 57 59 60 60 61 63 64 66 67 68 68 68 69 69 71 73 74 76 78 78 78 78 79 81 82 82
88 86 83 81 79 77 75 74 73 70 68 65 63 61 60 59 58 56 55 54 53 53 53 53 53 54 54 54 54 54 54 52 50 49 48 48 47 47 45 43 42 44 45 46 48 50 52 52 50 47 46 45 45 46 48 50 51 52 53 55 57 58 59 60 61 62 63 64 65 65 65 65 66 68 69 71 73 76 76 76 76 77 79 79 79
88 86 83 81 78 77 75 74 72 70 68 66 63 61 59 58 58 57 55 53 52 52 53 53 53 54 54 54 53 53 54 53 52 50 49 48 47 46 44 41 41 42 43 43 44 46 47 48 48 47 45 44 43 43 45 48 50 50 51 52 54 56 57 58 59 60 60 61 62 62 63 63 64 65 67 69 71 73 73 73 74 75 76 76 76
87 86 83 80 78 76 75 74 72 70 68 66 64 62 59 57 56 56 55 54 52 51 52 52 52 52 53 54 54 54 54 54 54 53 52 51 49 47 44 41 41 42 43 42 43 44 43 42 42 43 44 43 42 42 43 45 47 49 49 49 51 53 55 55 56 57 58 59 60 60 61 62 62 63 64 66 68 70 70 70 72 73 74 73 74
87 85 83 80 78 76 75 73 71 69 67 65 64 63 62 59 55 53 53 53 52 51 51 51 51 50 51 52 52 52 52 52 53 53 53 52 51 49 45 42 41 42 42 43 43 44 43 40 38 38 39 41 42 42 42 43 44 46 47 48 49 50 52 53 54 54 55 57 58 58 59 60 60 60 61 63 65 66 67 68 69 71 71 71 72
85 84 82 79 77 76 74 73 71 69 67 65 63 63 63 62 59 56 53 51 50 50 50 51 51 50 49 49 49 50 50 50 51 52 53 52 51 49 46 43 41 41 41 41 42 43 42 40 38 36 36 37 39 40 41 42 42 44 45 46 47 48 50 51 52 52 53 54 55 56 56 57 58 58 59 60 62 63 64 65 67 68 69 70 71
84 82 80 79 77 75 74 72 71 68 66 65 63 62 62 62 62 60 58 55 52 50 49 50 51 51 50 49 48 47 47 48 49 50 52 52 52 50 48 44 42 40 40 40 41 41 41 40 38 35 35 35 36 37 39 41 41 42 43 44 45 46 48 49 50 51 51 52 53 53 54 55 56 56 57 58 59 60 61 62 64 65 66 68 71
83 81 79 78 76 74 73 72 70 68 66 65 63 62 61 61 60 60 60 59 57 54 51 50 50 51 51 51 49 47 46 46 47 48 50 51 51 50 49 46 44 41 40 40 40 40 39 38 37 35 34 35 35 35 36 39 40 41 42 42 43 45 46 47 48 49 49 50 51 51 52 53 54 54 55 56 57 58 59 60 61 63 65 67 70
83 81 78 76 75 74 73 71 69 68 66 64 63 62 61 61 60 59 58 58 59 58 56 54 53 52 51 51 51 49 48 47 46 47 47 49 50 49 48 46 44 42 39 39 40 40 39 37 35 34 33 35 35 34 34 36 39 40 41 41 42 43 44 45 46 47 47 47 48 49 50 51 51 52 53 54 55 56 57 58 60 62 64 65 68
82 80 78 76 74 73 72 70 68 67 65 64 63 62 61 60 59 58 57 56 57 57 57 57 56 54 52 51 51 50 49 47 46 47 47 47 48 48 46 45 43 41 38 37 37 39 39 38 35 32 31 33 35 34 32 34 37 39 39 40 40 41 42 43 44 45 45 45 46 47 48 49 49 50 51 53 54 54 55 56 58 60 62 63 65
81 79 77 75 74 73 71 69 67 65 64 63 62 61 60 59 58 57 56 56 56 56 56 56 56 55 54 52 51 50 49 47 46 46 46 46 47 47 46 44 43 42 39 36 35 35 37 38 36 33 30 31 34 35 33 32 35 38 38 38 39 40 41 41 42 43 44 44 44 45 46 47 47 48 49 50 51 52 53 54 56 57 59 61 62
80 78 76 75 73 72 71 68 66 64 63 62 61 61 60 59 58 57 56 55 55 55 56 56 55 54 54 53 52 51 50 48 46 44 44 44 45 45 45 43 43 42 40 37 35 33 34 35 36 34 31 30 32 34 33 32 33 36 37 37 37 38 39 40 41 41 42 42 42 43 44 45 45 46 47 48 49 50 51 52 53 55 56 58 59
79 77 75 74 73 72 70 68 66 64 62 61 61 60 59 59 58 56 56 55 55 55 55 55 54 53 53 52 51 51 51 49 47 45 43 42 42 43 43 42 41 41 41 39 36 34 32 33 34 33 32 30 31 32 32 31 32 34 36 36 36 37 38 39 39 40 40 41 41 41 42 43 43 44 45 46 47 48 49 50 51 52 54 55 57
79 76 74 73 72 71 69 67 65 64 62 61 60 60 59 58 57 56 55 55 55 56 56 55 54 53 52 51 50 50 50 50 49 46 43 41 41 41 41 40 39 38 39 39 38 35 33 32 32 32 31 31 30 31 30 30 31 33 34 34 35 35 36 37 38 38 38 39 39 39 40 41 41 42 43 44 45 46 47 48 49 50 52 53 55
78 76 74 73 71 70 69 67 65 63 62 61 60 59 59 57 56 55 54 54 55 56 56 55 55 54 52 51 50 49 48 48 47 46 43 41 40 40 40 39 37 36 36 37 37 35 34 33 32 31 30 30 30 30 29 29 30 31 33 33 33 34 34 35 36 36 37 37 37 37 38 39 40 41 41 42 43 44 45 46 47 48 50 51 52
77 75 74 72 71 70 68 66 64 62 61 60 59 59 58 57 55 54 54 54 54 55 55 56 55 54 53 51 49 48 46 46 45 43 42 40 39 39 39 38 36 35 34 34 34 34 33 32 32 30 29 29 29 29 28 28 28 30 31 32 32 32 33 33 34 34 35 35 35 35 36 37 38 39 40 40 41 42 43 44 45 47 48 49 50
76 74 73 72 70 69 67 66 64 62 61 60 59 58 57 56 54 54 53 53 54 54 55 55 55 54 53 51 49 47 46 44 43 41 40 38 37 37 37 36 35 34 33 33 33 32 30 30 31 30 29 28 28 28 27 27 27 29 30 30 31 31 31 31 32 32 33 33 33 34 35 36 36 37 38 39 40 40 41 42 43 45 46 47 48
75 74 72 71 69 67 66 64 63 62 60 60 59 57 56 55 54 53 53 54 54 54 54 54 54 54 53 51 49 47 45 44 42 40 38 37 35 35 34 34 34 33 32 32 31 30 29 28 29 29 28 27 27 27 26 25 26 28 28 29 29 30 29 29 30 30 31 32 32 33 33 34 35 36 37 37 38 38 39 40 42 43 44 45 46
74 73 72 70 68 66 65 63 62 61 60 59 58 57 56 55 54 53 53 54 54 55 54 54 54 53 52 50 48 47 45 44 42 40 38 36 34 33 32 33 32 31 30 30 30 29 27 27 27 27 27 26 26 26 25 24 25 26 27 28 28 28 28 27 28 29 30 30 31 32 32 33 34 35 35 36 36 37 38 39 40 42 43 44 45
73 72 71 69 67 66 64 62 61 60 59 59 58 57 56 55 54 54 54 54 54 55 54 54 53 52 51 49 48 46 45 44 42 40 38 36 34 33 31 31 31 30 29 28 28 27 26 25 25 25 25 24 24 25 24 23 24 25 26 26 27 27 26 26 27 28 29 29 30 31 31 32 33 33 34 34 35 36 37 38 40 40 41 42 43
73 71 69 68 66 65 63 61 61 60 59 59 58 57 56 56 55 54 54 54 54 54 54 53 53 52 50 49 47 46 45 44 43 41 39 36 34 33 31 30 30 30 28 28 27 26 25 24 24 24 23 23 23 23 23 23 23 23 24 25 26 25 24 24 26 27 28 29 30 30 30 31 32 32 33 33 34 35 37 38 39 39 40 41 42
72 70 68 67 65 64 62 61 61 60 60 59 58 57 56 56 55 55 54 54 54 54 53 53 53 52 50 49 47 46 46 45 44 42 40 37 35 33 31 30 30 29 28 27 26 25 24 23 23 23 22 22 22 22 22 22 22 22 23 23 24 24 23 24 25 26 27 28 29 29 30 30 31 31 32 33 34 35 36 37 37 38 39 40 41
71 69 68 66 64 63 62 61 61 60 60 59 58 57 57 56 55 55 54 54 54 54 53 53 53 52 50 49 48 47 47 46 45 42 40 38 35 33 31 30 29 28 27 26 26 25 24 23 22 22 21 21 20 20 21 21 21 21 21 22 22 22 23 23 24 25 27 28 28 29 29 29 30 30 31 32 34 35 35 35 36 37 38 39 40
70 68 67 65 64 62 61 61 61 60 59 58 57 57 57 56 56 55 54 54 54 54 54 53 53 52 50 49 48 48 47 47 45 43 40 38 36 33 31 30 29 28 26 26 25 24 23 22 21 21 20 20 20 19 19 19 20 20 20 20 21 21 22 23 24 25 26 27 28 28 28 29 29 30 31 32 33 34 34 34 35 36 36 37 38
69 67 66 64 63 62 61 61 60 59 58 57 57 56 56 56 56 55 55 54 54 54 54 53 53 52 51 50 49 48 48 47 46 43 41 38 36 34 32 30 29 27 26 25 24 23 22 21 20 20 20 19 19 18 18 18 18 19 19 19 20 20 21 22 23 24 25 26 27 27 28 28 29 30 31 31 32 32 33 33 34 35 35 36 36
Wind_Direction
301 300 298 296 294 293 291 290 288 287 286 286 286 286 286 286 285 285 284 283 282 281 280 279 278 276 275 273 272 271 270 269 268 267 266 266 265 264 264 264 263 262 261 260 259 257 256 256 255 255 254 254 253 253 252 252 252 251 251 251 250 250 249 249 248 247 247 248 248 248 248 249 249 250 250 250 250 249 248 247 246 246 246 246 246
305 304 302 299 297 295 293 292 290 289 288 287 287 286 286 286 285 284 284 283 282 281 279 278 277 277 276 275 274 272 271 270 269 268 267 266 265 265 264 263 263 262 262 261 260 259 258 256 255 255 254 254 253 253 252 252 251 251 250 250 250 250 249 248 247 246 246 247 247 247 247 248 248 248 249 249 249 249 248 247 246 246 245 245 245
308 306 303 301 299 297 295 294 293 291 290 289 288 288 287 287 286 285 285 284 283 281 280 279 278 277 276 275 274 273 272 271 270 269 268 267 266 265 264 263 263 262 262 261 261 260 259 258 257 256 255 254 253 253 252 252 252 251 250 250 249 249 249 248 247 246 245 245 246 246 247 247 247 248 248 248 248 248 248 247 246 245 245 244 244
309 307 305 303 301 300 298 297 295 294 292 291 291 290 289 288 287 286 285 284 283 282 281 280 279 278 277 276 275 274 273 272 271 269 268 267 267 266 265 264 263 262 261 261 260 260 260 259 258 257 256 255 253 252 252 252 251 251 251 250 250 249 248 248 247 246 245 244 245 245 246 246 247 247 247 247 247 247 248 247 247 246 245 244 243
311 310 308 306 305 303 302 300 298 297 295 294 293 292 291 290 288 287 286 285 283 283 282 281 280 279 278 277 276 275 274 273 271 270 269 268 267 266 265 265 264 263 262 261 260 260 259 259 258 257 257 256 255 254 252 251 251 251 251 250 250 249 249 248 247 246 245 244 244 244 245 245 246 246 247 247 247 247 247 247 247 246 245 244 243
315 313 312 310 308 307 305 304 302 300 298 297 296 295 293 292 290 289 287 286 284 283 283 282 281 280 279 278 277 276 275 274 272 271 270 269 268 267 266 265 264 263 262 261 260 259 259 258 258 257 257 256 255 255 254 253 251 251 250 250 250 250 249 249 248 247 246 245 244 244 244 244 245 245 246 246 247 247 247 246 246 246 246 244 243
317 316 314 313 312 310 309 307 305 303 302 300 299 298 296 294 292 291 289 287 286 285 284 283 282 281 280 279 278 277 276 275 273 272 271 270 269 268 267 266 265 264 263 262 261 260 259 258 257 257 257 256 256 255 255 254 253 252 251 250 249 249 249 249 248 248 247 245 244 244 244 244 244 244 245 245 246 246 246 246 246 246 245 245 244
320 318 317 316 315 313 312 310 308 306 305 303 302 300 299 297 295 293 291 289 288 286 285 284 283 282 281 279 278 277 276 275 274 273 272 271 270 269 268 266 265 264 264 263 262 261 260 259 258 257 257 256 256 256 255 255 254 253 252 251 250 249 248 248 248 248 247 246 245 244 244 243 243 243 244 244 245 245 246 246 246 246 245 245 245
322 320 319 318 317 316 314 312 310 308 307 306 304 303 301 299 297 295 293 292 290 289 287 286 285 283 282 280 279 278 277 276 275 274 273 272 271 270 268 267 266 265 264 263 262 261 260 260 259 258 257 257 256 256 255 255 255 254 253 252 251 250 249 248 247 247 246 246 245 245 244 243 243 243 243 243 244 244 245 245 245 245 245 245 244
323 322 321 320 319 318 316 314 312 310 309 308 306 304 302 301 299 297 295 294 292 290 289 288 286 285 283 282 280 279 278 277 276 275 274 273 272 271 269 268 267 266 264 263 262 261 261 260 259 259 258 257 257 256 256 255 255 254 254 253 252 251 250 249 248 247 246 245 244 244 244 243 243 243 243 243 243 243 244 244 244 245 245 245 244
324 323 322 321 320 319 317 315 313 312 311 309 308 306 304 302 300 298 297 295 293 292 290 289 287 286 284 283 281 280 279 278 277 276 274 273 272 271 270 269 268 266 265 264 263 262 261 260 260 259 258 258 257 257 256 256 255 255 254 254 254 253 251 250 249 248 246 245 244 243 243 243 243 243 243 242 243 243 243 243 244 244 244 244 244
326 324 323 323 322 320 318 316 315 313 312 311 309 307 305 304 302 300 299 297 295 293 292 290 289 287 285 284 283 281 280 279 278 277 276 274 273 272 271 270 269 267 266 265 263 262 262 261 261 260 259 258 258 257 257 256 256 255 255 254 254 253 252 251 250 249 248 246 245 244 243 242 242 243 243 242 242 242 242 242 242 242 242 242 243
327 325 324 324 323 321 319 318 316 315 314 312 310 309 307 306 304 302 300 298 297 295 294 292 290 288 286 285 284 282 282 281 280 278 277 275 274 272 271 269 269 268 267 266 265 264 263 262 262 261 260 259 258 258 257 257 256 255 255 254 254 254 253 253 251 250 249 248 246 245 244 243 242 242 242 242 242 242 242 241 241 241 241 241 241
327 326 325 325 324 322 321 320 318 317 316 314 312 311 309 308 306 304 302 300 299 297 296 294 292 290 288 286 285 284 283 282 281 279 278 276 275 273 271 270 269 268 267 267 266 266 265 264 263 262 261 260 259 258 257 257 256 256 256 255 255 255 254 254 253 252 250 249 247 245 245 243 242 242 242 241 241 241 241 241 241 241 240 240 240
328 327 326 326 325 324 323 322 320 319 317 316 314 313 311 310 308 306 303 302 300 299 297 295 293 292 290 288 286 285 284 283 281 280 278 277 276 274 272 271 269 268 268 267 267 266 266 265 264 264 263 262 260 259 258 257 258 258 257 257 256 255 254 254 253 252 251 249 248 246 245 244 243 242 242 242 241 240 240 240 241 241 241 240 240
329 328 327 327 326 325 324 323 322 320 319 317 316 315 313 312 310 307 305 304 302 300 299 297 295 294 292 290 289 287 286 284 283 281 279 278 276 275 273 272 270 269 268 268 267 266 265 265 265 265 265 264 263 261 260 258 258 258 257 256 255 254 253 252 252 251 250 248 247 246 245 245 243 242 242 242 241 240 240 240 240 241 241 241 241
329 329 329 328 327 326 325 324 323 322 320 319 317 316 315 313 311 310 308 306 304 302 301 299 297 295 294 293 291 290 288 286 284 283 281 279 278 276 274 273 271 270 269 268 267 266 265 265 264 264 265 265 264 264 262 260 258 257 256 255 255 254 252 251 250 250 249 248 247 246 245 245 244 243 242 242 242 241 240 240 240 240 240 240 240
330 329 329 329 327 327 326 325 324 323 321 320 319 318 317 315 313 312 310 308 306 305 303 301 299 297 296 295 293 292 290 288 286 284 282 280 279 277 275 274 273 272 271 270 268 267 266 265 265 264 264 264 264 265 264 262 260 259 258 257 256 255 254 253 252 250 249 248 246 245 244 244 244 243 242 241 241 240 239 239 238 238 238 238 238
330 330 330 329 328 328 327 326 325 324 323 322 321 320 319 317 315 314 312 310 308 306 305 303 301 299 298 297 295 294 292 290 288 286 284 282 280 278 276 275 274 274 273 271 270 269 268 267 266 265 264 264 264 264 264 263 262 260 259 258 257 256 254 253 252 251 250 248 247 245 244 243 243 243 242 241 240 240 238 237 236 236 236 236 235
331 331 330 330 329 329 328 327 326 326 324 323 322 321 320 319 317 316 314 312 310 309 307 305 303 301 300 298 297 295 294 292 290 288 286 284 282 280 278 277 276 276 274 273 272 271 270 268 267 266 265 265 265 265 264 263 261 260 259 258 256 255 253 253 252 251 250 249 247 245 244 243 242 242 242 241 241 240 239 237 236 236 235 234 234
331 331 331 330 330 330 329 328 328 327 326 324 323 323 322 320 319 318 316 314 312 311 309 307 305 303 302 301 299 298 297 295 293 291 289 286 284 282 280 279 278 277 276 275 273 273 272 270 268 267 266 265 265 265 264 263 261 259 258 256 255 254 254 253 252 250 249 248 247 245 244 244 243 242 242 242 242 241 240 238 237 236 235 234 233
332 332 332 331 331 330 330 329 329 328 326 325 324 324 323 322 321 320 318 316 314 313 311 309 307 305 304 303 302 301 299 297 295 293 291 288 286 284 283 281 280 279 278 276 275 274 273 272 270 268 266 265 264 264 264 263 262 259 257 255 255 254 253 252 250 249 248 247 246 245 244 244 244 243 242 242 243 243 241 240 238 237 236 235 234
332 333 332 332 332 331 330 330 329 329 327 326 325 325 324 323 322 321 319 317 316 314 313 311 309 308 307 305 304 303 301 299 297 295 293 291 289 288 286 285 284 282 280 278 278 277 276 274 272 269 266 264 263 263 263 263 262 260 258 256 254 253 252 251 251 250 248 247 246 245 244 243 243 243 242 241 241 242 242 241 240 239 238 237 235
333 333 333 333 332 332 331 330 330 329 328 327 326 326 325 324 323 322 320 318 317 316 315 313 312 310 309 308 307 305 303 301 300 298 296 294 292 291 289 287 285 282 279 279 279 279 278 277 275 272 269 266 263 262 261 261 260 259 258 256 254 253 251 251 250 250 249 247 245 244 243 243 242 242 242 241 240 240 240 240 239 237 236 236 236
333 333 333 333 333 332 331 331 330 330 329 328 327 327 325 324 324 323 321 320 319 318 317 315 314 312 311 310 309 308 306 305 303 301 298 295 293 292 290 288 284 281 279 278 278 278 278 277 276 274 271 268 265 263 261 260 259 258 257 256 254 253 251 250 250 249 249 247 245 244 243 242 241 241 241 241 241 240 239 239 238 237 235 234 234
334 334 334 334 333 333 332 331 331 330 329 328 328 327 326 325 325 324 323 322 321 320 318 317 316 314 312 312 311 310 309 307 305 302 299 297 294 293 291 289 286 282 279 279 278 278 277 276 275 274 272 269 266 263 261 259 258 257 256 256 255 253 252 251 250 249 248 248 246 244 243 242 241 241 241 241 241 241 240 239 239 238 237 235 234
334 334 334 334 334 333 332 332 331 330 330 329 329 328 327 326 325 325 324 324 323 321 320 319 317 316 314 314 313 312 310 309 307 305 302 299 297 295 294 292 289 284 281 280 280 279 278 276 274 273 271 269 267 264 261 259 257 256 255 255 254 254 252 251 250 249 248 248 247 246 244 243 242 241 241 241 241 241 241 239 238 238 237 236 234
334 334 334 334 334 333 333 332 332 331 330 330 329 329 328 327 326 326 325 325 324 323 322 321 319 318 316 315 314 313 311 310 308 306 303 301 299 297 295 294 290 286 282 280 279 279 279 279 278 275 271 269 266 264 262 260 258 256 255 254 254 253 252 251 250 250 249 248 248 247 245 244 242 241 240 240 240 240 240 239 238 237 236 235 234
335 335 334 335 334 333 333 333 332 331 330 330 330 329 329 328 327 326 326 326 325 325 324 322 321 320 318 317 316 315 314 313 312 310 307 305 302 300 298 296 293 288 284 280 277 276 276 277 278 278 275 271 267 263 261 260 259 257 255 254 253 253 252 252 251 250 250 249 248 247 246 245 242 241 240 239 239 240 240 239 238 238 237 235 234
335 335 335 335 334 334 333 333 332 331 331 330 330 329 329 329 328 327 326 326 326 326 325 324 323 322 320 319 318 318 317 316 315 313 311 309 307 305 303 302 298 294 289 285 281 279 277 275 275 275 275 273 269 264 261 259 259 258 256 254 253 253 252 252 251 250 250 249 248 247 246 245 243 241 240 239 239 239 239 239 238 238 237 235 234
335 335 335 335 334 334 333 333 332 332 331 331 330 330 329 329 328 328 327 327 327 327 326 325 324 323 321 320 319 318 317 316 314 313 312 310 309 307 306 304 301 297 294 291 288 285 283 280 277 274 272 272 270 267 263 260 258 258 257 255 253 252 252 252 251 249 248 248 247 246 246 245 244 242 240 239 239 239 238 237 237 237 237 236 234
336 335 335 335 334 334 333 333 332 332 331 331 331 331 330 329 329 328 327 327 328 328 328 327 325 324 322 320 318 317 316 315 314 312 311 311 309 308 307 305 302 299 295 293 290 289 287 285 281 277 274 271 269 268 266 263 260 258 257 256 254 253 252 251 250 249 248 247 247 246 245 244 243 242 241 239 238 238 237 236 236 236 236 236 235
336 336 335 335 334 334 333 333 332 332 332 332 332 332 331 330 329 329 328 328 328 329 330 329 327 325 323 321 319 317 316 315 314 312 311 311 310 309 308 306 304 301 298 294 291 289 288 287 284 281 277 273 269 267 266 265 262 260 258 257 255 253 252 251 251 249 248 247 246 245 244 244 243 242 241 239 238 237 236 235 235 235 234 234 234
336 336 336 335 334 334 333 333 332 332 332 332 332 332 332 331 330 330 330 330 330 330 331 331 329 327 324 322 320 319 318 316 314 312 310 309 309 309 308 307 305 303 300 297 293 291 289 287 285 282 279 275 271 267 266 265 263 261 259 258 256 254 252 251 251 250 248 247 246 245 244 243 242 241 240 239 237 236 235 234 234 233 232 232 233
336 336 336 335 334 334 334 333 332 332 332 333 333 332 332 331 331 331 331 331 331 331 332 332 331 329 326 324 322 320 319 317 315 311 309 307 307 307 307 305 304 303 301 298 295 293 290 288 286 283 280 277 273 269 266 265 264 262 260 258 256 255 253 252 251 250 249 247 246 245 244 243 242 240 239 238 237 235 234 233 232 232 231 231 231
337 336 336 335 334 334 334 333 332 332 333 333 333 332 332 332 331 331 331 332 332 332 332 332 331 330 327 325 323 321 320 318 316 312 309 307 306 306 306 305 303 302 300 298 295 293 292 289 287 284 280 277 275 272 267 265 264 263 261 259 257 255 253 252 251 250 248 247 245 244 243 242 241 239 238 237 236 235 233 232 232 231 231 231 231
337 337 336 335 335 334 334 333 333 333 333 333 333 332 332 332 331 331 332 332 332 332 332 332 331 330 328 326 323 321 320 318 317 314 310 308 306 306 306 305 304 302 300 298 294 292 290 289 287 285 280 276 274 273 270 266 264 263 261 259 257 255 253 251 250 249 248 246 244 243 242 241 240 238 238 237 236 234 233 232 231 231 231 231 230
337 337 336 335 334 334 334 333 333 333 333 333 333 333 333 332 332 332 332 332 333 333 332 332 331 330 328 327 324 322 321 319 318 315 312 309 306 305 305 305 304 302 301 298 295 291 289 287 286 285 281 276 273 272 270 267 264 263 261 259 256 254 252 251 249 248 247 245 243 242 241 239 238 237 236 236 235 234 232 232 231 230 230 230 230
337 337 336 335 334 334 334 333 333 333 334 334 334 333 333 332 332 332 332 333 333 333 332 332 331 331 329 328 326 323 322 321 319 317 313 309 307 305 304 304 303 301 300 298 296 293 289 286 285 284 282 278 274 271 270 267 264 262 261 258 256 254 251 250 249 247 246 244 242 241 240 239 237 236 235 234 233 232 231 231 230 229 229 229 229
337 337 336 336 335 334 334 334 334 334 335 335 334 334 333 333 332 332 333 333 333 333 332 332 332 331 330 328 326 324 323 322 320 318 315 311 308 305 304 303 302 300 298 297 297 295 291 287 285 283 281 278 275 272 269 266 263 262 260 258 255 253 251 249 248 247 245 244 242 240 239 238 236 235 233 232 232 231 230 230 229 228 228 228 228
337 336 336 336 335 335 334 334 334 335 335 335 335 334 334 333 333 333 333 334 334 333 333 332 332 332 331 329 327 325 324 322 321 319 316 312 309 306 304 303 301 299 297 296 295 294 292 289 286 283 281 278 275 272 269 266 262 261 259 257 254 252 250 248 247 246 245 243 241 239 238 236 235 233 232 231 230 229 229 229 228 227 227 227 227
337 336 336 336 336 335 335 335 335 335 336 336 335 335 334 333 333 333 334 334 334 334 333 333 332 332 331 329 327 326 324 323 321 319 316 313 310 307 305 304 302 300 297 295 294 294 293 291 288 285 282 279 276 272 269 266 262 260 258 256 253 251 249 247 246 245 244 242 240 238 236 235 233 232 231 230 229 228 228 227 227 227 227 226 226
337 337 336 336 336 336 335 335 336 336 337 336 336 335 334 334 334 335 335 335 335 334 334 334 333 332 331 329 328 326 325 324 322 320 317 314 311 309 306 305 303 302 300 297 296 295 293 291 289 287 283 280 276 273 269 266 262 259 257 255 252 250 248 246 245 244 243 241 238 236 234 233 232 231 230 228 228 227 227 226 226 226 226 226 225
337 337 337 337 337 336 336 336 336 337 337 337 336 335 335 335 335 336 336 336 336 335 335 334 333 332 331 329 328 327 326 326 324 322 319 316 313 311 308 306 305 303 302 300 298 297 295 292 290 288 285 281 277 274 270 265 261 258 256 254 252 249 247 245 244 242 241 239 237 234 232 231 230 229 228 228 227 227 226 226 225 225 224 224 224
337 337 337 337 337 337 337 337 337 337 338 337 337 336 336 336 337 337 337 337 336 336 335 335 334 332 331 330 329 328 328 328 327 325 322 319 317 314 311 308 307 306 304 302 300 299 297 294 291 288 286 282 278 275 271 265 260 257 255 253 251 249 246 244 242 241 239 237 235 233 231 230 229 228 227 227 227 226 226 225 225 224 223 223 222
337 338 338 338 338 338 338 338 338 338 339 338 337 337 337 338 338 338 338 338 337 336 335 335 334 333 332 331 330 330 330 330 330 328 326 323 320 318 315 312 310 308 307 305 303 301 299 296 293 289 287 283 279 276 272 267 260 256 254 252 251 248 245 242 241 239 237 236 234 232 230 228 227 226 226 225 225 225 225 224 224 223 222 222 221
338 338 338 338 339 339 339 339 339 340 339 339 338 338 339 339 340 339 339 338 337 336 336 335 335 334 333 332 332 332 332 333 332 331 328 326 324 321 318 315 313 311 310 308 305 303 301 297 294 291 288 284 280 277 273 268 262 256 253 251 250 248 244 240 238 237 236 234 233 231 229 228 226 225 224 224 223 223 224 223 223 222 221 221 220
339 339 339 340 340 340 340 340 341 341 340 339 339 340 340 340 341 340 339 338 337 336 336 336 336 335 335 334 334 335 335 335 334 333 331 329 326 324 321 318 316 314 313 311 308 306 303 299 295 292 289 285 281 277 273 268 263 257 252 249 248 246 242 239 236 235 235 233 232 230 228 226 225 224 223 222 222 222 222 222 221 221 220 219 219
340 340 340 341 341 341 341 342 342 341 340 340 340 341 341 341 341 340 339 338 337 337 337 337 337 337 337 336 337 337 337 337 336 334 332 330 328 326 324 322 320 318 316 314 311 308 306 301 297 293 290 286 281 277 273 267 262 258 253 248 246 243 241 238 235 234 233 232 231 229 227 225 223 222 221 220 221 221 221 220 220 219 219 218 218
340 341 341 341 342 342 343 343 343 342 341 341 341 342 342 342 341 340 340 339 338 338 339 339 339 339 339 338 339 339 339 338 337 335 333 332 330 329 327 325 323 321 320 317 314 311 308 304 299 294 290 286 282 277 272 267 262 257 253 248 243 241 238 236 234 233 232 231 230 228 226 224 222 221 220 219 219 220 219 219 218 218 217 217 216
341 341 342 342 343 343 344 344 343 342 341 342 343 343 343 342 341 341 340 340 340 339 340 340 341 341 341 340 340 340 340 339 338 336 335 333 332 331 330 328 326 324 322 320 317 314 310 305 300 295 290 286 282 277 272 267 262 257 252 247 242 238 236 235 234 232 230 229 228 227 225 222 221 220 219 218 218 217 217 216 216 216 216 215 215